Date,TemperatureHighF,TemperatureAvgF,TemperatureLowF,DewpointHighF,DewpointAvgF,DewpointLowF,HumidityHigh,HumidityAvg,HumidityLow,PressureMaxIn,PressureMinIn,WindSpeedMaxMPH,WindSpeedAvgMPH,GustSpeedMaxMPH,PrecipitationSumIn
2012-1-1,54.7,45.4,34.9,46.7,39.6,31.0,90,81,62,30.02,29.60,10,2,10,0.07
2012-1-2,47.7,38.8,29.5,43.8,23.6,16.7,87,55,41,29.76,29.60,14,3,14,0.07
2012-1-3,31.3,26.6,17.8,20.6,10.6,-0.8,70,52,37,30.04,29.72,14,5,14,0.00
2012-1-4,28.6,21.5,13.1,17.5,5.1,-1.7,65,49,32,30.14,29.87,10,3,10,0.00
2012-1-5,39.6,31.4,26.1,27.0,22.8,16.9,84,71,54,29.89,29.75,13,1,13,0.00
2012-1-6,57.6,42.1,26.6,35.1,29.4,19.8,85,63,40,29.87,29.67,9,1,9,0.00
2012-1-7,65.3,48.2,34.6,40.3,33.4,27.0,77,58,36,29.87,29.63,9,1,9,0.00
2012-1-8,49.7,41.5,33.5,32.4,27.4,21.4,72,58,45,30.21,29.87,8,2,8,0.00
2012-1-9,42.8,35.0,29.9,27.4,23.5,19.1,76,63,53,30.22,29.90,5,1,5,0.00
2012-1-10,48.8,38.9,31.7,34.6,29.3,24.0,89,70,51,29.92,29.79,9,2,9,0.00
2012-1-11,49.0,38.9,27.0,43.0,31.2,21.3,90,74,56,30.00,29.65,10,1,10,0.20
2012-1-12,52.6,48.4,44.6,50.9,46.3,42.2,94,92,90,29.66,29.27,12,2,12,0.66
2012-1-13,50.0,38.5,29.5,46.8,28.5,14.7,95,69,44,29.77,29.18,13,4,13,0.02
2012-1-14,35.5,30.1,25.0,19.3,17.4,15.8,69,59,47,29.99,29.77,11,3,11,0.02
2012-1-15,27.4,23.0,18.0,16.9,6.9,-0.1,76,51,34,30.47,29.99,13,4,13,0.00
2012-1-16,40.0,27.8,14.4,31.2,15.2,3.0,73,59,42,30.51,30.07,11,2,11,0.00
2012-1-17,53.6,44.5,37.1,48.6,40.9,30.9,94,87,73,30.07,29.48,13,3,13,0.00
2012-1-18,54.4,40.8,27.0,49.6,24.0,10.8,86,52,36,30.07,29.48,18,6,18,0.00
2012-1-19,37.3,30.4,21.6,27.0,19.8,10.4,71,65,51,30.23,29.94,10,2,10,0.00
2012-1-20,36.9,32.4,29.2,28.1,16.4,7.3,72,53,33,30.30,29.95,10,2,10,0.00
2012-1-21,36.0,31.2,28.4,33.7,25.5,13.1,92,81,48,30.26,29.90,15,3,15,0.00
2012-1-22,39.4,32.0,24.8,36.7,27.7,19.4,90,84,79,30.48,30.26,12,4,12,0.00
2012-1-23,47.2,42.6,39.4,45.3,40.1,36.5,94,91,89,30.38,30.19,5,1,5,0.00
2012-1-24,56.9,48.9,40.9,45.7,39.8,32.8,89,72,57,30.15,29.97,8,2,8,0.00
2012-1-25,48.4,41.4,36.9,32.2,30.7,27.8,77,66,53,30.31,30.15,5,2,5,0.00
2012-1-26,37.8,37.6,37.4,30.9,30.8,29.9,77,76,75,30.22,30.18,1,0,1,0.00
2012-1-27,57.8,48.0,42.8,51.3,37.5,31.8,79,67,63,29.86,29.41,9,5,9,0.00
2012-1-28,51.5,41.6,32.8,34.2,30.9,17.4,80,66,38,30.05,29.86,7,2,7,0.00
2012-1-29,46.6,38.0,28.3,26.8,19.6,16.6,66,49,33,30.22,30.05,5,2,5,0.00
2012-1-30,41.9,36.6,32.2,27.0,20.0,15.9,66,52,36,30.33,30.04,7,2,7,0.00
2012-1-31,63.4,48.7,33.1,35.9,31.9,19.1,72,54,31,30.27,30.03,8,2,8,0.00
2012-2-1,65.5,54.2,45.5,47.1,40.2,33.8,79,60,47,30.05,29.90,7,2,7,0.00
2012-2-2,49.5,44.4,38.5,37.9,33.6,23.2,79,66,54,30.22,29.97,8,3,8,0.00
2012-2-3,47.5,37.4,29.3,24.9,22.2,20.2,70,55,40,30.44,30.24,8,2,8,0.00
2012-2-4,46.4,38.1,29.9,29.4,25.7,20.0,72,61,50,30.37,30.09,2,1,2,0.00
2012-2-5,42.1,36.7,28.8,27.8,25.2,20.4,71,63,54,30.19,30.07,6,2,6,0.00
2012-2-6,53.5,37.9,24.5,30.7,24.6,17.6,78,60,38,30.19,30.01,6,2,6,0.00
2012-2-7,53.8,41.5,32.4,32.4,28.1,24.1,78,60,43,30.22,29.99,6,2,6,0.00
2012-2-8,41.9,36.0,32.0,31.4,27.4,23.4,86,71,63,30.29,30.09,6,2,6,0.00
2012-2-9,44.6,35.5,29.7,30.1,26.7,20.7,90,72,48,30.16,30.07,7,2,7,0.00
2012-2-10,52.2,38.3,27.0,35.8,28.0,20.3,79,67,48,30.16,29.92,8,2,8,0.00
2012-2-11,37.8,35.2,33.5,33.5,31.2,29.3,90,85,79,29.92,29.56,5,2,5,0.00
2012-2-12,33.7,27.5,20.5,29.4,14.9,7.7,87,59,46,30.01,29.63,13,5,13,0.00
2012-2-13,43.7,33.2,23.6,21.0,17.9,14.6,69,55,36,30.07,29.98,8,2,8,0.00
2012-2-14,48.6,40.1,32.8,35.0,28.1,20.7,78,63,49,30.11,30.00,4,1,4,0.00
2012-2-15,45.4,42.1,35.5,40.8,36.7,30.2,88,81,74,30.28,30.04,4,1,4,0.00
2012-2-16,35.5,33.3,31.9,30.2,28.5,27.4,83,83,81,30.29,30.27,1,0,1,0.00
2012-2-17,54.5,46.3,34.4,44.0,32.9,24.1,93,62,43,30.03,29.93,7,3,7,0.00
2012-2-18,55.3,41.1,30.6,36.6,27.9,22.3,81,61,32,30.09,29.89,8,2,8,0.00
2012-2-19,48.1,38.7,30.2,33.1,28.1,24.8,81,66,51,30.08,29.92,8,2,8,0.00
2012-2-20,48.2,39.5,32.4,27.4,21.2,16.1,62,49,33,30.33,29.92,9,4,9,0.00
2012-2-21,49.5,38.9,26.3,39.4,28.0,15.6,79,65,51,30.35,29.87,11,2,11,0.00
2012-2-22,63.5,49.3,38.2,43.4,37.3,29.8,88,66,29,29.87,29.48,7,3,7,0.00
2012-2-23,64.6,54.1,47.3,45.8,38.3,27.7,86,59,30,29.75,29.40,13,3,13,0.00
2012-2-24,48.1,45.0,41.6,45.5,40.6,35.6,94,85,62,29.73,29.30,11,4,11,0.00
2012-2-25,45.5,41.3,37.4,38.6,25.3,19.0,82,54,39,29.94,29.46,15,6,15,0.00
2012-2-26,49.5,40.3,30.4,22.4,19.4,14.9,63,44,33,30.45,30.34,9,2,9,0.00
2012-2-27,61.6,44.6,30.1,38.1,31.5,20.9,87,62,32,30.44,30.11,7,3,7,0.00
2012-2-28,57.8,45.4,37.3,37.3,28.2,22.4,71,52,31,30.38,30.12,10,3,10,0.00
2012-2-29,46.8,42.8,35.3,44.4,38.2,28.7,92,84,71,30.36,29.72,4,1,4,0.00
2012-3-1,50.4,45.2,38.9,44.6,41.0,34.5,92,85,69,29.94,29.61,10,3,10,0.00
2012-3-2,46.4,42.0,38.2,42.9,36.8,33.8,92,82,71,30.11,29.77,5,2,5,0.00
2012-3-3,48.2,46.7,45.4,46.6,44.7,42.9,94,92,91,29.77,29.68,5,2,5,0.00
2012-3-4,42.5,37.7,34.9,23.2,22.0,21.2,60,53,43,29.77,29.65,5,2,5,0.00
2012-3-5,46.4,37.9,29.0,24.9,20.2,10.4,71,50,36,30.36,29.78,7,2,7,0.00
2012-3-6,49.1,35.8,25.6,25.0,17.4,8.4,71,48,25,30.64,30.37,5,3,5,0.00
2012-3-7,68.2,49.0,31.7,44.2,34.9,24.7,82,62,29,30.61,30.35,10,3,10,0.00
2012-3-8,72.4,59.5,50.4,52.4,48.7,44.1,81,69,47,30.35,29.90,10,5,10,0.00
2012-3-9,61.0,49.1,38.3,53.1,33.7,20.3,86,57,34,30.27,29.86,10,4,10,0.05
2012-3-10,45.4,37.2,30.4,20.8,16.3,9.4,60,43,29,30.55,30.27,9,3,9,0.00
2012-3-11,64.8,45.1,29.5,35.1,27.4,20.3,71,53,28,30.55,30.36,7,2,7,0.00
2012-3-12,75.1,54.5,37.4,45.0,37.5,30.6,77,56,25,30.39,30.14,7,2,7,0.00
2012-3-13,78.8,62.6,53.3,59.6,52.9,44.8,91,72,48,30.14,29.94,7,3,7,0.16
2012-3-14,75.6,63.0,51.3,53.8,41.7,30.3,88,52,22,30.18,30.00,9,2,9,0.05
2012-3-15,54.2,47.5,45.2,43.6,41.1,33.9,92,80,47,30.32,30.17,8,4,8,0.00
2012-3-16,51.3,47.2,45.0,47.6,44.6,42.8,94,91,86,30.27,30.12,8,2,8,0.05
2012-3-17,62.5,49.7,42.8,52.2,45.2,40.1,93,85,66,30.37,30.18,5,2,5,0.02
2012-3-18,63.4,51.9,45.4,51.8,46.3,42.9,91,82,65,30.38,30.22,4,2,4,0.00
2012-3-19,69.8,69.1,68.4,57.1,56.6,56.2,65,65,64,30.22,30.21,4,2,4,0.00
2012-3-20,56.5,56.4,56.3,53.6,53.0,52.2,90,88,86,30.30,30.27,1,1,1,0.00
2012-3-21,65.2,58.1,54.4,59.5,55.0,52.0,93,90,81,30.34,30.28,2,1,2,0.00
2012-3-22,72.9,63.0,56.5,63.4,58.0,54.2,94,84,68,30.30,30.09,4,1,4,0.00
2012-3-23,73.8,61.1,53.5,60.5,53.7,48.2,93,78,60,30.10,30.03,8,2,8,0.00
2012-3-24,58.9,53.6,50.8,50.3,46.5,43.4,89,77,57,30.06,29.94,10,3,10,0.11
2012-3-25,52.4,48.9,46.4,47.1,45.4,42.8,91,88,82,29.95,29.73,9,4,9,0.20
2012-3-26,57.8,48.1,36.5,46.3,30.0,10.3,94,56,23,30.12,29.70,13,5,13,0.03
2012-3-27,56.5,41.7,30.4,25.3,11.0,5.2,56,30,17,30.28,30.12,10,4,10,0.00
2012-3-28,70.6,55.5,37.8,50.3,39.0,24.8,68,55,38,30.20,29.56,6,2,6,0.00
2012-3-29,62.5,55.9,43.9,51.6,39.1,28.7,71,54,41,30.02,29.56,12,5,12,0.00
2012-3-30,62.3,46.7,36.5,37.6,30.9,25.1,72,55,32,30.09,29.93,6,2,6,0.00
2012-3-31,46.8,44.2,42.3,43.4,40.2,36.5,91,86,67,29.97,29.82,11,4,11,0.34
2012-4-1,54.2,46.6,41.8,44.3,41.4,38.4,91,82,66,29.91,29.62,7,2,7,0.10
2012-4-2,59.8,50.0,41.6,44.1,33.3,18.9,92,58,27,29.87,29.55,11,4,11,0.19
2012-4-3,67.7,52.2,36.2,29.7,23.0,18.9,56,34,18,29.95,29.78,10,3,10,0.00
2012-4-4,73.8,59.6,49.3,39.6,33.4,28.0,60,39,21,29.78,29.51,7,2,7,0.00
2012-4-5,59.9,50.4,40.1,36.7,30.4,24.3,63,47,34,29.91,29.70,8,3,8,0.00
2012-4-6,64.3,50.1,36.9,32.0,25.5,17.5,61,40,23,30.02,29.89,7,3,7,0.00
2012-4-7,64.4,51.3,36.9,21.7,19.3,16.4,48,30,17,30.09,29.96,10,4,10,0.00
2012-4-8,70.6,56.0,38.9,35.0,23.6,18.2,45,30,16,30.04,29.68,10,3,10,0.00
2012-4-9,66.8,56.9,47.2,33.7,27.5,25.2,52,33,23,29.79,29.68,8,4,8,0.00
2012-4-10,64.4,54.3,44.5,36.9,29.4,25.7,65,40,25,29.81,29.69,9,3,9,0.00
2012-4-11,58.7,48.4,39.4,33.9,30.8,27.5,75,53,32,29.91,29.78,8,3,8,0.00
2012-4-12,51.1,46.1,42.8,34.1,33.3,31.3,70,61,47,30.12,29.91,3,2,3,0.00
2012-4-13,67.0,52.9,40.5,37.5,32.8,27.8,63,47,33,30.22,30.12,7,2,7,0.00
2012-4-14,78.3,59.0,39.8,43.6,35.2,29.3,71,45,20,30.23,30.05,8,2,8,0.00
2012-4-15,84.8,69.6,58.5,57.8,51.4,42.8,68,53,38,30.06,29.98,7,2,7,0.00
2012-4-16,91.6,73.4,58.9,64.4,56.9,51.3,79,59,36,30.06,29.93,5,2,5,0.00
2012-4-18,59.8,56.0,53.3,40.6,38.0,34.4,62,51,39,30.18,30.14,3,1,3,0.00
2012-4-19,72.2,58.8,52.0,50.8,45.5,40.6,76,62,44,30.14,30.03,5,1,5,0.00
2012-4-20,65.3,57.4,47.2,53.6,48.8,41.7,85,73,60,30.06,29.87,3,1,3,0.00
2012-4-21,80.1,65.6,55.1,61.4,56.8,51.2,88,75,52,29.87,29.68,8,2,8,0.00
2012-4-22,62.6,54.0,50.4,57.7,50.3,47.1,94,87,80,29.78,29.23,11,3,11,0.00
2012-4-23,58.3,51.5,42.3,56.2,46.3,35.9,93,83,70,29.45,29.11,5,2,5,0.00
2012-4-24,63.0,49.8,38.2,43.7,35.3,29.3,86,61,30,29.71,29.45,8,2,8,0.00
2012-4-25,65.7,52.8,38.5,43.8,36.5,31.6,79,56,30,29.90,29.71,7,2,7,0.00
2012-4-26,60.1,52.4,42.3,54.1,46.3,33.9,89,80,62,29.92,29.60,4,1,4,0.00
2012-4-27,59.4,53.2,45.0,55.2,35.7,26.6,91,54,33,30.15,29.60,12,4,12,0.00
2012-4-28,61.9,48.7,35.6,36.1,28.0,22.1,77,48,27,30.26,30.13,4,2,4,0.00
2012-4-29,69.3,55.6,42.7,45.5,20.5,-2.8,99,36,1,30.24,30.08,8,2,8,0.00
2012-4-30,123.7,62.8,50.2,51.6,5.4,-4.3,1,1,1,30.30,30.24,1,0,1,0.00
2012-5-1,70.0,60.5,0.0,60.5,53.0,0.0,80,73,68,30.06,29.98,2,1,2,0.00
2012-5-2,59.8,52.8,50.8,53.6,49.0,47.6,91,87,80,30.17,30.06,6,2,6,0.00
2012-5-3,56.2,55.6,55.3,53.0,52.8,52.6,92,91,89,30.10,30.07,2,0,2,0.00
2012-5-4,86.2,65.9,55.3,68.1,59.8,52.9,95,82,54,30.09,29.84,3,1,3,0.00
2012-5-5,67.9,58.4,55.3,62.3,55.6,52.7,92,91,82,30.03,29.85,4,2,4,0.00
2012-5-6,64.8,56.4,52.2,54.0,51.4,47.8,91,84,68,30.12,30.02,5,2,5,0.00
2012-5-7,68.6,56.5,47.9,55.1,48.8,44.6,92,76,53,30.15,30.09,5,1,5,0.00
2012-5-8,72.2,62.9,55.6,58.0,53.9,48.3,84,73,57,30.10,29.84,9,3,9,0.00
2012-5-9,66.4,64.0,61.9,64.6,61.6,58.4,94,92,83,29.83,29.58,7,1,7,0.00
2012-5-10,69.3,60.8,53.5,60.3,48.1,38.6,93,67,35,29.86,29.52,7,2,7,0.00
2012-5-11,53.5,50.9,49.5,40.3,39.9,39.4,70,66,61,29.90,29.86,1,0,1,0.00
2012-5-12,83.5,72.7,52.9,48.4,46.0,42.7,68,40,28,30.25,30.14,5,1,5,0.00
2012-5-13,83.5,69.1,57.1,59.3,52.8,45.8,73,57,39,30.21,30.09,6,1,6,0.00
2012-5-14,76.3,67.6,63.4,61.7,58.3,53.9,83,72,59,30.17,30.09,3,1,3,0.00
2012-5-15,70.9,64.9,62.6,66.9,61.3,58.1,93,88,82,30.12,29.93,5,1,5,0.00
2012-5-16,75.8,67.4,63.7,66.7,63.0,61.1,93,86,73,29.95,29.84,2,0,2,0.00
2012-5-17,73.3,65.0,58.0,61.8,50.8,42.4,88,62,41,30.13,29.89,4,1,4,0.00
2012-5-18,59.8,54.4,51.5,49.9,46.4,44.6,81,74,64,30.18,30.12,1,0,1,0.00
2012-5-19,61.4,61.3,61.2,46.5,46.3,46.0,58,58,57,30.16,30.16,1,0,1,0.00
2012-5-20,71.3,62.6,56.0,58.7,52.2,44.1,89,70,49,30.23,30.12,7,2,7,0.00
2012-5-21,62.8,61.1,59.4,60.9,58.9,56.5,93,93,90,30.19,29.96,5,2,5,0.00
2012-5-22,70.2,64.5,61.2,65.8,61.9,59.5,94,91,86,29.96,29.81,3,1,3,0.00
2012-5-23,78.5,69.5,62.3,69.1,64.3,60.1,93,84,71,30.02,29.86,3,0,3,0.00
2012-5-24,75.8,69.2,66.1,69.0,65.1,63.0,91,87,78,30.17,30.02,3,1,3,0.00
2012-5-25,83.5,71.0,65.5,74.1,66.8,63.1,94,87,72,30.17,30.12,3,1,3,0.00
2012-5-28,91.4,85.0,76.7,73.2,71.3,69.5,79,64,54,29.97,29.90,5,1,5,0.00
2012-5-29,94.1,81.4,72.4,74.9,70.6,65.1,89,71,49,29.92,29.72,5,1,5,0.00
2012-5-30,75.2,72.9,69.3,69.8,67.1,64.4,88,82,72,29.78,29.71,1,0,1,0.00
2012-5-31,87.1,73.9,64.8,65.6,60.8,55.2,92,67,34,29.92,29.70,4,1,4,0.00
2012-6-1,73.3,68.2,65.0,66.5,60.0,54.8,91,76,67,29.99,29.76,5,2,5,0.00
2012-6-2,77.6,69.4,62.3,66.6,58.2,50.0,93,70,45,29.78,29.65,4,1,4,0.00
2012-6-3,79.0,64.1,56.5,57.3,52.2,48.4,79,66,43,29.78,29.65,4,1,4,0.00
2012-6-4,59.8,58.5,58.0,54.0,53.4,52.8,86,83,79,29.70,29.62,1,0,1,0.00
2012-6-5,63.9,61.2,58.0,53.1,52.3,51.1,78,73,67,29.95,29.91,1,0,1,0.00
2012-6-6,68.4,60.3,51.8,58.2,52.2,47.1,84,75,59,30.00,29.94,3,0,3,0.00
2012-6-7,74.3,60.6,56.7,61.8,54.7,52.4,87,81,65,29.99,29.94,2,0,2,0.00
2012-6-8,89.8,75.6,58.3,61.5,58.0,54.6,90,57,33,29.96,29.84,4,1,4,0.00
2012-6-9,86.8,73.3,61.6,62.9,57.3,53.5,77,59,35,29.98,29.88,4,1,4,0.00
2012-6-10,82.6,73.8,65.9,69.5,65.0,60.2,88,75,61,30.16,29.98,2,1,2,0.00
2012-6-11,74.2,70.4,67.9,66.4,64.2,62.5,87,81,70,30.23,30.13,3,1,3,0.00
2012-6-12,72.5,69.5,67.3,67.5,65.8,63.6,94,88,81,30.09,29.88,3,1,3,0.00
2012-6-13,69.7,66.8,0.0,66.4,64.9,62.5,94,92,88,30.04,29.81,7,2,7,0.00
2012-6-14,70.2,66.5,63.2,63.7,62.3,59.3,93,86,80,30.24,30.04,6,2,6,0.00
2012-6-15,81.0,68.2,58.1,59.4,55.9,52.1,92,68,41,30.29,30.22,6,1,6,0.00
2012-6-16,78.8,68.2,59.0,60.0,56.3,53.6,83,67,50,30.32,30.23,5,1,5,0.00
2012-6-17,74.5,65.6,61.6,59.1,55.8,52.8,77,71,57,30.24,30.11,4,1,4,0.00
2012-6-18,71.6,65.0,60.3,59.7,56.3,52.7,80,74,65,30.14,30.09,2,1,2,0.00
2012-6-19,79.7,70.1,63.7,69.6,63.1,57.1,86,79,71,30.17,30.08,3,0,3,0.00
2012-6-20,100.3,81.6,67.3,76.0,70.4,62.3,90,71,46,30.10,29.94,3,1,3,0.00
2012-6-21,102.4,87.3,76.0,73.9,70.5,68.3,81,60,35,29.95,29.78,3,1,3,0.00
2012-6-22,90.0,76.9,69.5,76.2,69.6,0.0,91,79,61,29.86,29.74,4,1,4,0.00
2012-6-23,92.5,76.2,67.3,69.3,63.9,58.2,93,69,35,29.98,29.80,6,1,6,0.00
2012-6-24,81.7,71.3,64.4,66.6,61.0,0.0,81,70,55,30.02,29.90,3,0,3,0.00
2012-6-25,83.2,71.7,66.6,69.5,65.3,60.8,90,81,59,29.91,29.64,5,1,5,0.00
2012-6-26,75.6,66.6,57.8,60.8,52.8,48.8,82,62,45,29.80,29.71,9,2,9,0.00
2012-6-27,86.2,71.3,56.0,57.2,52.7,48.1,76,54,33,29.85,29.75,8,1,8,0.00
2012-6-28,93.6,78.0,63.9,64.3,59.0,52.9,72,54,34,29.86,29.73,5,1,5,0.00
2012-6-29,101.2,82.9,70.0,76.1,69.6,62.0,89,66,43,29.76,29.58,5,1,5,0.00
2012-6-30,97.6,83.5,0.0,74.4,68.4,60.7,84,62,30,29.79,29.64,9,1,9,0.00
2012-7-1,98.6,84.4,70.9,73.5,69.2,64.8,82,63,41,29.86,29.74,5,1,5,0.00
2012-7-2,94.9,81.5,71.5,67.9,62.2,0.0,71,54,32,29.93,29.85,6,1,6,0.00
2012-7-3,89.5,78.8,67.9,70.1,63.8,57.3,74,61,46,29.97,29.84,3,0,3,0.00
2012-7-4,98.8,82.7,73.3,75.2,70.7,67.7,86,69,43,29.89,29.72,6,1,6,0.00
2012-7-5,97.4,84.3,74.0,76.2,70.3,63.4,89,66,40,29.83,29.72,5,1,5,0.00
2012-7-6,92.5,81.8,72.9,72.7,69.3,65.9,80,67,51,29.94,29.83,4,1,4,0.00
2012-7-7,100.1,84.4,75.2,76.9,71.8,69.0,85,69,41,29.90,29.77,8,1,8,0.00
2012-7-8,87.7,79.5,74.0,73.5,71.4,0.0,90,77,60,29.87,29.81,4,1,4,0.00
2012-7-9,87.1,78.4,73.4,70.6,65.0,61.8,85,64,48,29.97,29.84,7,1,7,0.00
2012-7-10,85.9,78.1,69.1,70.5,66.7,61.6,80,69,53,30.08,29.98,5,0,5,0.00
2012-7-11,86.0,77.0,69.3,70.0,66.7,64.1,87,71,55,30.19,30.07,4,1,4,0.00
2012-7-12,86.8,76.7,68.4,69.8,65.2,62.4,82,68,52,30.21,30.15,4,1,4,0.00
2012-7-13,86.9,77.2,67.3,70.8,65.9,0.0,82,69,57,30.22,30.14,3,0,3,0.00
2012-7-14,78.8,75.8,73.3,69.8,67.0,63.9,79,74,70,30.23,30.15,4,1,4,0.00
2012-7-15,84.6,76.3,72.9,76.4,71.4,66.6,91,85,76,30.18,29.94,10,0,10,0.00
2012-7-16,95.4,80.9,71.3,76.2,71.3,0.0,92,75,47,29.97,29.79,6,1,6,0.00
2012-7-17,99.7,84.6,71.8,76.6,69.9,65.1,84,64,36,29.87,29.76,4,1,4,0.00
2012-7-18,97.0,83.3,77.6,76.7,72.3,69.5,82,70,50,29.88,29.79,4,1,4,0.00
2012-7-20,73.1,68.0,64.8,68.7,64.3,60.1,93,88,82,30.04,29.89,10,4,10,0.00
2012-7-21,83.2,70.9,66.1,65.4,61.2,58.1,82,72,53,30.13,30.00,7,2,7,0.00
2012-7-22,84.2,73.0,63.5,68.0,63.2,58.8,87,72,55,30.18,30.12,4,1,4,0.00
2012-7-23,89.8,78.6,68.2,77.9,70.4,62.9,89,77,62,30.14,29.83,5,1,5,0.00
2012-7-24,100.1,84.6,73.8,75.1,69.3,62.6,88,63,35,29.83,29.58,8,2,8,0.00
2012-7-25,89.3,76.5,68.6,64.9,59.9,53.0,67,57,44,29.88,29.71,4,1,4,0.00
2012-7-26,97.6,79.9,67.9,77.1,69.1,59.3,85,71,52,29.84,29.63,14,1,14,0.00
2012-7-28,86.4,77.3,70.6,77.5,72.4,67.1,90,85,68,29.98,29.86,4,1,4,0.00
2012-7-29,83.2,74.0,69.3,73.2,69.0,66.5,92,85,70,30.05,29.88,6,1,6,0.00
2012-7-30,83.3,74.7,68.8,70.8,68.1,65.7,91,80,65,30.12,30.04,5,1,5,0.00
2012-7-31,86.4,76.0,71.1,71.4,68.1,66.0,85,77,60,30.08,29.92,6,1,6,0.00
2012-8-1,82.4,74.0,70.4,75.0,69.3,66.0,91,85,70,29.94,29.84,4,0,4,0.00
2012-8-2,90.5,78.1,68.8,77.7,71.4,66.3,94,81,61,29.93,29.85,4,1,4,0.00
2012-8-3,92.5,81.2,73.8,80.2,74.1,70.7,91,80,63,30.10,29.93,4,1,4,0.00
2012-8-4,92.2,81.3,73.8,78.9,74.7,0.0,91,81,63,30.20,30.10,4,1,4,0.00
2012-8-5,94.9,82.6,73.8,77.9,74.7,69.8,91,78,52,30.20,29.99,7,2,7,0.00
2012-8-6,89.3,79.0,73.4,75.7,72.4,67.2,93,81,53,30.03,29.95,4,1,4,0.00
2012-8-7,83.5,76.3,69.3,71.5,66.9,61.9,83,73,65,30.02,29.97,4,0,4,0.00
2012-8-8,83.3,77.4,74.0,77.0,73.1,69.9,91,87,79,29.99,29.93,3,0,3,0.00
2012-8-9,88.6,78.7,71.6,77.4,73.3,69.2,94,84,67,29.98,29.87,4,0,4,0.00
2012-8-10,81.0,77.0,72.4,77.0,73.8,69.3,93,90,86,29.90,29.75,4,0,4,0.00
2012-8-11,86.2,76.5,73.1,77.8,72.9,69.7,94,89,74,29.94,29.80,3,0,3,0.00
2012-8-12,89.8,77.8,71.3,72.6,68.9,64.5,92,76,50,29.97,29.88,4,0,4,0.00
2012-8-13,88.0,76.0,66.1,67.1,64.0,60.9,84,68,47,30.03,29.94,5,0,5,0.00
2012-8-14,82.8,74.4,68.8,75.1,69.3,63.5,90,84,73,29.98,29.88,3,0,3,0.00
2012-8-15,87.8,76.9,71.6,78.1,72.0,66.9,93,85,66,29.89,29.81,5,0,5,0.00
2012-8-16,90.4,76.5,67.5,70.4,65.0,59.7,91,70,40,29.92,29.86,5,0,5,0.00
2012-8-17,91.1,77.6,67.3,72.5,66.3,0.0,86,69,49,29.91,29.78,4,0,4,0.00
2012-8-18,82.8,72.4,65.5,67.9,64.6,61.6,90,77,59,29.93,29.83,5,1,5,0.00
2012-8-19,77.8,70.1,62.5,63.5,60.8,56.7,84,73,59,29.99,29.92,4,0,4,0.00
2012-8-20,83.0,73.0,0.0,65.8,62.4,59.5,77,69,55,29.94,29.85,0,0,0,0.00
2012-8-21,85.0,74.5,66.8,67.5,63.8,0.0,84,70,51,30.10,29.93,0,0,0,0.00
2012-8-22,86.2,74.4,0.0,70.7,65.4,0.0,88,74,55,30.15,30.09,3,0,3,0.00
2012-8-23,86.9,74.8,65.0,70.6,65.7,60.6,88,74,54,30.17,30.10,1,0,1,0.00
2012-8-24,87.7,75.5,67.0,72.1,66.9,62.7,88,76,57,30.18,30.12,3,0,3,0.00
2012-8-25,79.2,73.4,71.1,71.2,66.6,65.2,85,80,74,30.26,30.17,5,0,5,0.00
2012-8-26,83.7,76.3,72.2,70.2,67.5,65.4,81,74,63,30.31,30.22,7,1,7,0.00
2012-8-27,81.4,75.6,71.3,76.6,71.5,67.1,92,87,81,30.22,29.97,0,0,0,0.00
2012-8-28,92.2,78.9,73.3,74.9,71.6,66.0,93,81,45,29.97,29.81,5,1,5,0.00
2012-8-29,85.3,75.7,67.0,65.3,61.9,58.8,78,63,49,30.02,29.93,6,1,6,0.00
2012-8-30,88.9,74.0,63.0,64.7,60.5,57.1,84,65,40,30.12,30.02,1,0,1,0.00
2012-8-31,88.2,71.0,67.3,65.0,63.8,61.3,89,80,42,30.09,29.93,0,0,0,0.00
2012-9-1,95.2,83.1,74.5,70.6,66.5,57.5,81,60,34,30.04,29.94,0,0,0,0.00
2012-9-2,80.1,76.4,74.2,72.1,70.3,68.9,87,82,76,30.09,30.01,0,0,0,0.00
2012-9-3,76.9,74.6,71.1,71.9,70.2,68.3,92,86,81,30.14,30.05,4,0,4,0.00
2012-9-4,79.0,74.1,70.4,76.1,71.9,68.0,94,93,90,30.09,29.87,0,0,0,0.00
2012-9-5,86.8,76.4,71.6,78.3,73.2,69.2,94,90,74,29.87,29.77,6,0,6,0.00
2012-9-6,76.7,71.8,66.2,72.9,68.8,63.8,93,90,87,29.92,29.84,0,0,0,0.00
2012-9-7,90.0,76.1,67.9,77.8,70.1,0.0,94,82,65,29.94,29.84,1,0,1,0.00
2012-9-8,86.4,76.1,66.4,77.0,71.2,62.7,92,85,70,29.88,29.60,7,2,7,0.00
2012-9-9,73.8,66.7,64.1,65.1,62.2,58.5,90,86,74,29.89,29.78,3,0,3,0.00
2012-9-10,77.4,66.0,58.3,58.5,52.6,46.5,85,64,42,30.15,29.88,6,2,6,0.00
2012-9-11,78.7,63.7,52.9,55.8,50.1,44.6,76,62,39,30.30,30.14,4,1,4,0.00
2012-9-12,65.9,60.0,56.0,57.1,53.5,50.5,84,79,73,30.37,30.29,1,0,1,0.00
2012-9-13,81.7,72.6,59.0,65.3,61.2,54.1,85,69,56,30.39,30.30,3,1,3,0.00
2012-9-14,83.0,75.2,66.6,67.6,63.5,60.3,81,68,56,30.23,30.10,4,1,4,0.00
2012-9-15,79.0,67.7,60.3,60.8,54.7,49.3,86,65,41,30.15,30.06,7,2,7,0.00
2012-9-16,79.6,64.9,54.5,57.9,51.7,47.6,79,64,41,30.15,29.84,4,0,4,0.00
2012-9-17,81.7,65.6,52.7,60.9,53.4,45.9,82,66,46,29.93,29.84,3,0,3,0.00
2012-9-18,76.9,72.5,67.7,71.5,67.8,61.0,91,85,79,29.84,29.47,11,2,11,1.18
2012-9-19,76.5,66.5,59.9,65.6,54.5,47.1,92,67,41,29.97,29.54,6,1,6,1.03
2012-9-20,73.6,65.1,58.5,61.7,55.9,47.0,81,72,63,29.98,29.89,3,0,3,0.00
2012-9-21,79.0,67.4,60.1,62.6,58.6,55.6,87,74,52,29.91,29.80,5,1,5,0.00
2012-9-22,63.2,61.8,59.6,57.3,56.3,54.5,83,82,81,29.81,29.77,0,0,0,0.00
2012-9-30,69.5,62.8,58.5,53.6,52.0,49.9,74,68,56,29.66,29.57,3,0,3,0.00
2012-10-1,76.7,61.7,0.0,54.5,50.2,46.4,86,68,40,29.77,29.65,5,1,5,0.00
2012-10-2,71.5,67.2,62.1,68.7,61.7,53.1,91,83,72,29.80,29.72,3,0,3,0.00
2012-10-3,75.6,71.2,68.4,72.5,68.3,65.6,92,91,88,29.92,29.75,3,0,3,0.00
2012-10-4,76.0,71.1,67.0,72.5,68.1,64.2,92,90,86,29.93,29.83,2,0,2,0.00
2012-10-5,83.9,69.0,60.5,66.2,61.7,57.9,92,79,50,29.88,29.75,6,1,6,0.00
2012-10-6,81.7,67.0,56.5,66.0,58.8,49.0,90,76,54,29.81,29.56,6,1,6,0.00
2012-10-7,56.5,51.3,48.8,49.0,45.9,42.7,88,82,72,29.92,29.80,4,0,4,0.00
2012-10-8,53.5,49.7,43.9,47.2,45.0,40.8,91,84,78,30.08,29.91,3,1,3,0.00
2012-10-9,59.8,56.5,52.2,57.4,53.6,46.9,92,90,82,29.99,29.83,6,2,6,0.00
2012-10-10,68.6,61.7,55.8,61.5,55.1,44.1,93,80,61,29.83,29.62,6,1,6,0.00
2012-10-11,65.7,53.3,46.4,44.6,39.9,35.3,77,61,39,30.02,29.79,6,1,6,0.00
2012-10-12,61.7,50.4,43.2,45.3,38.8,30.8,88,66,47,30.22,29.89,7,1,7,0.00
2012-10-13,60.7,47.1,36.4,41.3,34.8,28.4,79,63,46,30.31,30.11,4,1,4,0.00
2012-10-14,76.7,60.3,47.2,57.8,50.8,41.3,87,73,44,30.12,29.77,8,2,8,0.00
2012-10-15,75.6,67.3,61.0,63.5,60.3,57.2,87,79,62,29.77,29.43,8,2,8,0.00
2012-10-16,64.4,55.7,47.3,57.3,44.5,40.1,88,67,44,29.72,29.47,7,2,7,0.00
2012-10-17,63.0,51.8,41.4,48.9,42.7,35.9,83,72,54,29.82,29.71,3,0,3,0.00
2012-10-18,68.6,56.6,45.4,60.4,50.8,40.8,89,81,68,29.83,29.70,4,1,4,0.00
2012-10-19,69.8,65.6,63.0,66.8,62.4,59.3,91,89,84,29.71,29.45,6,1,6,0.00
2012-10-20,73.6,62.7,52.9,62.2,53.8,43.5,92,75,42,29.65,29.46,5,1,5,0.00
2012-10-21,68.2,55.5,46.6,48.2,43.6,40.7,81,66,43,29.85,29.65,5,1,5,0.00
2012-10-22,70.6,56.5,47.3,48.7,44.0,40.8,79,64,41,29.93,29.83,7,1,7,0.00
2012-10-23,66.1,57.1,48.2,58.2,50.3,42.3,86,78,71,29.92,29.85,2,0,2,0.00
2012-10-24,63.0,60.3,58.0,58.1,56.3,54.5,90,86,83,29.97,29.87,5,1,5,0.00
2012-10-25,62.3,61.0,60.1,57.5,56.5,55.6,87,85,83,30.05,29.97,3,0,3,0.00
2012-10-26,68.0,62.6,58.0,61.4,57.9,54.1,90,85,78,30.02,29.89,3,1,3,0.00
2012-10-27,65.2,61.6,59.6,57.3,54.5,50.4,86,77,71,29.89,29.65,10,2,10,0.00
2012-10-28,60.3,57.8,55.8,53.8,51.9,48.8,91,81,67,29.66,29.37,16,6,16,0.00
2012-10-29,56.7,53.7,52.2,51.5,50.2,49.2,92,88,80,29.37,28.97,15,6,15,0.00
2012-11-10,46.3,44.7,43.6,40.0,39.2,38.4,83,81,78,30.21,30.19,1,0,1,0.00
2012-11-11,68.0,52.6,41.6,54.5,45.7,37.1,91,78,54,30.28,30.19,6,1,6,0.00
2012-11-12,63.2,53.3,45.9,59.3,50.2,43.1,91,89,87,30.26,29.98,8,1,8,0.00
2012-11-13,61.6,49.2,38.5,58.7,44.2,30.6,91,83,67,30.22,29.91,11,4,11,0.00
2012-11-14,49.7,40.5,32.2,36.3,31.5,27.4,83,71,56,30.29,30.21,9,2,9,0.00
2012-11-15,45.4,40.9,36.9,36.4,32.9,30.3,79,73,66,30.23,30.05,8,2,8,0.00
2012-11-16,48.8,40.9,34.7,35.1,31.3,27.1,77,69,55,30.20,30.04,7,2,7,0.00
2012-11-17,52.2,41.8,34.7,39.8,33.3,27.2,82,72,62,30.39,30.20,12,2,12,0.00
2012-11-18,51.7,46.0,38.5,44.0,39.3,33.2,84,77,70,30.42,30.30,12,4,12,0.00
2012-11-19,50.8,47.7,44.8,43.6,41.8,40.1,85,80,73,30.30,30.01,12,4,12,0.00
2012-11-20,52.4,45.9,39.4,42.2,38.8,35.0,86,76,67,30.02,29.89,8,2,8,0.00
2012-11-21,53.3,45.0,38.9,41.6,37.1,32.0,85,74,59,30.00,29.90,9,2,9,0.00
2012-11-22,55.6,44.6,37.6,46.8,38.8,33.0,87,80,68,30.05,29.92,7,1,7,0.00
2012-11-23,57.6,44.4,33.7,49.3,39.6,30.6,91,83,70,29.92,29.49,6,1,6,0.00
2012-11-24,47.2,41.1,36.2,43.5,27.2,22.7,89,58,43,29.69,29.47,15,4,15,0.00
2012-11-25,43.6,35.5,29.3,26.8,23.1,21.1,71,61,47,29.78,29.68,10,2,10,0.00
2012-11-26,50.0,37.6,28.1,29.8,25.1,21.1,77,62,41,30.04,29.77,10,1,10,0.00
2012-11-27,42.1,38.4,32.0,38.8,33.6,23.8,90,83,71,30.06,29.94,6,2,6,0.00
2012-11-28,42.8,36.2,29.0,35.5,28.6,22.2,89,75,52,30.10,29.95,10,3,10,0.00
2012-11-29,46.6,35.4,26.6,29.2,24.8,21.5,83,67,45,30.18,30.08,7,1,7,0.00
2012-11-30,48.1,38.3,28.4,38.7,31.2,23.1,85,76,62,30.18,30.12,5,1,5,0.00
2012-12-1,53.1,46.5,40.5,46.8,42.4,35.4,90,86,79,30.26,30.17,8,3,8,0.00
2012-12-2,56.0,47.9,41.4,48.3,43.7,38.7,92,85,71,30.20,29.92,6,2,6,0.00
2012-12-3,66.6,55.1,46.6,54.7,48.3,42.4,90,79,59,30.05,29.90,5,1,5,0.00
2012-12-4,65.9,54.6,46.1,55.4,49.3,42.1,91,83,68,30.06,29.81,6,2,6,0.00
2012-12-5,56.5,51.7,37.1,51.2,39.8,22.5,85,65,47,30.03,29.71,14,4,14,0.00
2012-12-6,44.3,35.1,28.8,26.6,22.9,19.8,75,61,47,30.16,30.03,7,2,7,0.00
2012-12-7,47.3,39.3,30.1,44.2,34.5,23.2,89,83,75,30.08,29.80,2,0,2,0.00
2012-12-8,55.4,51.4,47.2,51.8,48.5,44.2,92,90,86,29.80,29.67,5,1,5,0.00
2012-12-9,51.8,48.6,45.5,49.5,45.9,41.5,92,90,85,30.01,29.78,8,3,8,0.00
2012-12-10,62.8,58.3,51.8,60.2,55.9,49.5,92,92,90,29.78,29.37,6,2,6,0.00
2012-12-11,60.1,49.4,43.7,57.8,43.6,37.5,92,81,65,29.84,29.37,6,3,6,0.00
2012-12-12,45.7,42.4,38.0,31.9,29.2,27.6,72,60,50,30.22,30.15,5,2,5,0.00
2012-12-13,45.2,36.2,31.3,33.0,27.8,25.3,78,72,57,30.25,30.12,10,1,10,0.00
2012-12-14,51.5,37.8,27.2,33.1,27.4,22.7,85,68,44,30.12,29.96,6,1,6,0.00
2012-12-15,49.7,40.0,31.0,39.2,32.3,24.9,81,74,66,30.11,29.99,3,1,3,0.00
2012-12-16,52.9,49.6,45.0,48.5,45.4,38.9,90,86,79,30.00,29.69,3,1,3,0.00
2012-12-17,50.8,47.2,44.8,48.2,44.8,42.4,92,91,90,29.69,29.42,6,3,6,0.00
2012-12-18,58.7,52.1,42.1,52.2,46.6,34.4,92,82,66,29.45,29.27,8,3,8,0.00
2012-12-19,49.3,44.3,38.2,33.7,30.6,28.0,75,59,48,29.92,29.60,19,5,19,0.00
2012-12-20,49.9,40.2,31.1,44.8,33.0,24.9,83,75,67,30.01,29.52,6,2,6,0.00
2012-12-21,56.2,45.6,36.0,53.6,38.5,27.5,91,76,63,29.52,28.94,13,4,13,0.00
2012-12-22,42.3,38.0,34.2,30.0,25.3,22.0,77,61,48,29.68,29.18,18,5,18,0.00
2012-12-23,43.7,35.8,30.2,27.4,23.7,21.6,72,62,42,29.79,29.67,8,2,8,0.00
2012-12-24,29.7,29.7,29.5,22.7,22.7,22.1,75,75,73,29.77,29.76,1,1,1,0.00
2012-12-25,43.7,33.8,29.7,34.5,26.1,22.7,75,73,69,30.04,29.76,10,2,10,0.00
2012-12-26,52.6,39.3,30.8,50.2,35.0,24.9,92,84,73,30.06,29.10,20,6,20,0.00
2012-12-27,53.8,40.0,31.3,51.2,34.3,22.0,92,80,65,29.65,28.99,19,6,19,0.00
2012-12-28,39.8,32.7,29.0,27.4,23.9,22.0,79,70,61,29.87,29.65,12,2,12,0.00
2012-12-29,43.0,34.6,28.8,37.4,30.5,23.1,92,85,74,29.82,29.27,10,2,10,0.00
2012-12-30,38.3,33.8,30.1,28.7,21.4,0.0,86,61,47,30.02,29.41,19,8,19,0.00
2012-12-31,40.5,34.0,27.5,28.7,23.3,14.9,76,65,53,30.03,29.70,7,2,7,0.00
2013-1-1,42.1,39.2,32.0,31.7,28.5,18.4,72,65,56,29.80,29.63,9,2,9,0.00